When you browse on this site, cookies collect data to enhance your experience and personalize the content and advertising you see.
Visit our Privacy Policy to learn more. By continuing to use the site, you agree to this use of cookies and data.
  • In Spain
  • List of Countries
  • For 7 days
  • Water Temperature
  • Weather Map
  • Weather Widgets
  • user-avatar
    Login

    Hourly Weather Lebu

    Today, 19 February, Wednesday

    Time Temperature Precipitation Wind Pressure Humidity
    00:00 +12°C° 0 mm 8 mps 746 mmHg 80%
    01:00 +11°C° 0 mm 8 mps 746 mmHg 83%
    02:00 +11°C° 0 mm 7 mps 746 mmHg 85%
    03:00 +10°C° 0 mm 7 mps 746 mmHg 87%
    04:00 +10°C° 0 mm 7 mps 746 mmHg 89%
    05:00 +11°C° 0 mm 8 mps 747 mmHg 83%
    06:00 +12°C° 0 mm 8 mps 747 mmHg 76%
    07:00 +13°C° 0 mm 9 mps 747 mmHg 70%
    08:00 +16°C° 0 mm 9 mps 747 mmHg 61%
    09:00 +18°C° 0 mm 9 mps 747 mmHg 52%
    10:00 +21°C° 0 mm 9 mps 747 mmHg 44%
    11:00 +21°C° 0 mm 10 mps 747 mmHg 42%
    12:00 +21°C° 0 mm 10 mps 747 mmHg 40%
    13:00 +21°C° 0 mm 11 mps 747 mmHg 38%
    14:00 +19°C° 0 mm 11 mps 747 mmHg 40%
    15:00 +19°C° 0 mm 11 mps 746 mmHg 43%
    16:00 +19°C° 0 mm 11 mps 746 mmHg 45%
    17:00 +17°C° 0 mm 11 mps 746 mmHg 51%
    18:00 +16°C° 0 mm 11 mps 747 mmHg 57%
    19:00 +13°C° 0 mm 11 mps 747 mmHg 63%
    20:00 +13°C° 0 mm 10 mps 747 mmHg 64%
    21:00 +12°C° 0 mm 10 mps 746 mmHg 66%
    22:00 +11°C° 0 mm 9 mps 746 mmHg 68%
    23:00 +11°C° 0 mm 9 mps 746 mmHg 66%

    Tomorrow, 20 February, Thursday

    Time Temperature Precipitation Wind Pressure Humidity
    00:00 +10°C° 0 mm 9 mps 745 mmHg 64%
    01:00 +10°C° 0 mm 9 mps 745 mmHg 63%
    02:00 +9°C° 0 mm 8 mps 744 mmHg 61%
    03:00 +9°C° 0 mm 8 mps 744 mmHg 60%
    04:00 +9°C° 0 mm 8 mps 744 mmHg 59%
    05:00 +11°C° 0 mm 8 mps 744 mmHg 55%
    06:00 +12°C° 0 mm 8 mps 744 mmHg 51%
    07:00 +13°C° 0 mm 8 mps 744 mmHg 47%
    08:00 +18°C° 0 mm 7 mps 743 mmHg 40%
    09:00 +22°C° 0 mm 7 mps 743 mmHg 34%
    10:00 +26°C° 0 mm 7 mps 743 mmHg 27%
    11:00 +27°C° 0 mm 7 mps 743 mmHg 29%
    12:00 +27°C° 0 mm 8 mps 743 mmHg 30%
    13:00 +27°C° 0 mm 8 mps 743 mmHg 32%
    14:00 +26°C° 0 mm 7 mps 742 mmHg 34%
    15:00 +26°C° 0 mm 7 mps 742 mmHg 37%
    16:00 +24°C° 0 mm 7 mps 742 mmHg 39%
    17:00 +22°C° 0 mm 7 mps 742 mmHg 47%
    18:00 +20°C° 0 mm 7 mps 742 mmHg 55%
    19:00 +17°C° 0 mm 7 mps 742 mmHg 63%
    20:00 +16°C° 0 mm 6 mps 742 mmHg 65%
    21:00 +15°C° 0 mm 5 mps 742 mmHg 67%
    22:00 +15°C° 0 mm 5 mps 743 mmHg 69%
    23:00 +15°C° 0 mm 4 mps 742 mmHg 65%

    Day after tomorrow, 21 February, Friday

    Time Temperature Precipitation Wind Pressure Humidity
    00:00 +16°C° 0 mm 3 mps 742 mmHg 62%
    01:00 +16°C° 0 mm 2 mps 742 mmHg 58%
    08:00 +21°C° 0 mm 2 mps 743 mmHg 38%
    09:00 +25°C° 0 mm 2 mps 743 mmHg 32%
    10:00 +29°C° 0 mm 3 mps 744 mmHg 25%
    11:00 +28°C° 0 mm 3 mps 744 mmHg 28%
    12:00 +28°C° 0 mm 3 mps 744 mmHg 30%
    13:00 +28°C° 0 mm 3 mps 744 mmHg 33%
    14:00 +27°C° 0 mm 2 mps 743 mmHg 35%
    15:00 +26°C° 0 mm 2 mps 743 mmHg 38%
    16:00 +25°C° 0 mm 1 mps 743 mmHg 41%
    17:00 +22°C° 0 mm 1 mps 743 mmHg 50%
    18:00 +19°C° 0 mm 2 mps 743 mmHg 60%
    19:00 +16°C° 0 mm 2 mps 743 mmHg 69%
    20:00 +15°C° 0 mm 2 mps 743 mmHg 71%
    21:00 +15°C° 0 mm 2 mps 744 mmHg 73%
    22:00 +14°C° 0 mm 2 mps 744 mmHg 74%
    23:00 +14°C° 0 mm 2 mps 744 mmHg 71%

    22 February, Saturday

    Time Temperature Precipitation Wind Pressure Humidity
    00:00 +14°C° 0 mm 2 mps 744 mmHg 68%
    01:00 +14°C° 0 mm 2 mps 743 mmHg 65%
    02:00 +14°C° 0 mm 2 mps 744 mmHg 67%
    03:00 +13°C° 0 mm 3 mps 744 mmHg 70%
    04:00 +12°C° 0 mm 3 mps 744 mmHg 72%
    05:00 +14°C° 0 mm 3 mps 744 mmHg 69%
    06:00 +16°C° 0 mm 3 mps 745 mmHg 66%
    07:00 +17°C° 0 mm 4 mps 745 mmHg 63%
    08:00 +20°C° 0 mm 4 mps 745 mmHg 55%
    09:00 +23°C° 0 mm 4 mps 745 mmHg 46%
    10:00 +27°C° 0 mm 4 mps 745 mmHg 37%
    11:00 +27°C° 0 mm 5 mps 745 mmHg 38%
    12:00 +28°C° 0 mm 5 mps 745 mmHg 39%
    13:00 +28°C° 0 mm 6 mps 745 mmHg 39%
    14:00 +27°C° 0 mm 5 mps 745 mmHg 41%
    15:00 +27°C° 0 mm 4 mps 745 mmHg 43%
    16:00 +26°C° 0 mm 3 mps 745 mmHg 45%
    17:00 +23°C° 0 mm 2 mps 745 mmHg 59%
    18:00 +19°C° 0 mm 2 mps 745 mmHg 73%
    19:00 +15°C° 0 mm 1 mps 745 mmHg 87%
    20:00 +15°C° 0 mm 1 mps 745 mmHg 90%
    21:00 +14°C° 0 mm 1 mps 745 mmHg 92%
    22:00 +13°C° 0 mm 2 mps 745 mmHg 95%
    23:00 +13°C° 0 mm 2 mps 745 mmHg 94%

    23 February, Sunday

    Time Temperature Precipitation Wind Pressure Humidity
    00:00 +12°C° 0 mm 3 mps 745 mmHg 93%
    01:00 +12°C° 0 mm 3 mps 745 mmHg 92%
    02:00 +12°C° 0 mm 4 mps 745 mmHg 92%
    03:00 +12°C° 0 mm 5 mps 745 mmHg 91%
    04:00 +12°C° 0 mm 5 mps 745 mmHg 91%
    05:00 +12°C° 0 mm 5 mps 745 mmHg 89%
    06:00 +13°C° 0 mm 6 mps 746 mmHg 86%
    07:00 +14°C° 0 mm 6 mps 746 mmHg 84%
    08:00 +16°C° 0 mm 6 mps 746 mmHg 76%
    09:00 +18°C° 0 mm 7 mps 746 mmHg 67%
    10:00 +20°C° 0 mm 7 mps 747 mmHg 59%
    11:00 +21°C° 0 mm 7 mps 747 mmHg 57%
    12:00 +21°C° 0 mm 7 mps 747 mmHg 54%
    13:00 +22°C° 0 mm 7 mps 747 mmHg 52%
    14:00 +21°C° 0 mm 7 mps 746 mmHg 53%
    15:00 +21°C° 0 mm 7 mps 746 mmHg 54%
    16:00 +20°C° 0 mm 8 mps 746 mmHg 55%
    17:00 +17°C° 0 mm 8 mps 746 mmHg 64%
    18:00 +15°C° 0 mm 8 mps 746 mmHg 74%
    19:00 +13°C° 0 mm 8 mps 746 mmHg 84%
    20:00 +12°C° 0 mm 8 mps 747 mmHg 83%
    21:00 +12°C° 0 mm 8 mps 747 mmHg 82%
    22:00 +11°C° 0 mm 8 mps 747 mmHg 81%
    23:00 +11°C° 0 mm 8 mps 747 mmHg 83%

    24 February, Monday

    Time Temperature Precipitation Wind Pressure Humidity
    00:00 +10°C° 0 mm 7 mps 747 mmHg 85%
    01:00 +10°C° 0 mm 7 mps 747 mmHg 87%
    02:00 +9°C° 0 mm 6 mps 747 mmHg 89%
    03:00 +9°C° 0 mm 6 mps 747 mmHg 91%
    04:00 +8°C° 0 mm 6 mps 748 mmHg 93%
    05:00 +9°C° 0 mm 5 mps 748 mmHg 89%
    06:00 +10°C° 0 mm 5 mps 748 mmHg 85%
    07:00 +10°C° 0 mm 5 mps 748 mmHg 81%
    08:00 +14°C° 0 mm 5 mps 748 mmHg 70%
    09:00 +17°C° 0 mm 6 mps 748 mmHg 60%
    10:00 +20°C° 0 mm 7 mps 749 mmHg 49%
    11:00 +20°C° 0 mm 7 mps 748 mmHg 49%
    12:00 +21°C° 0 mm 7 mps 748 mmHg 48%
    13:00 +21°C° 0 mm 8 mps 748 mmHg 48%
    14:00 +20°C° 0 mm 8 mps 748 mmHg 51%
    15:00 +18°C° 0 mm 8 mps 747 mmHg 54%
    16:00 +17°C° 0 mm 8 mps 747 mmHg 57%
    17:00 +16°C° 0 mm 7 mps 747 mmHg 63%
    18:00 +15°C° 0 mm 7 mps 747 mmHg 70%
    19:00 +12°C° 0 mm 7 mps 747 mmHg 77%
    20:00 +12°C° 0 mm 7 mps 748 mmHg 79%
    21:00 +11°C° 0 mm 7 mps 748 mmHg 81%
    22:00 +11°C° 0 mm 7 mps 748 mmHg 84%
    23:00 +11°C° 0 mm 6 mps 748 mmHg 84%
    Show more